GHGSAT-C5 (52744 NORAD) Tracking and Keplerian Element Data
This shows tracking and keplerian element data for the satellite.
Feedback or suggestion? Click here.
Element | Value |
Catalog | 52744 |
Name | GHGSAT-C5 |
Epoch Orbit | 716 |
Epoch Day | 193.14857041 |
Epoch Year | 2022 |
RAAN | 307.4747 |
Inclination | 97.5248 |
Eccentricity | 0.0011995 |
Argument of Perigee | 85.6018 |
Mean Anonmoly | 358.8946 |
Mean Motion | 15.12088255 |
Decay Rate | 1.106E-05 |
L1 | 1 52744U 22057N 22193.14857041 .00001106 00000+0 67909-4 0 9997 |
L2 | 2 52744 97.5248 307.4747 0011995 85.6018 358.8946 15.12088255 7168 |
Live tracking and technical data element details for GHGSAT-C5 (NORAD 52744). GHGSAT-C5 can be tracked NOW for your location showing map with azimuth and elevation plus other details from your city location.
Track the satellite on the map from your city or location and see movement details for azimuth, elevation, latitude, longitude, range, height, and movement on the map or in text.
IsCatalogInMostPopularTable: catalog: 52744, numindb: 4
Update: records affected: 1
GetName: 52744 GHGSAT-C5
Hit Count: updated at: Sun, 14 Aug 2022 01:34:51 GMT